User: anonymous   Login
Location: Unspecified
(0.0000°N, 0.0000°E)
Time: 00:58:50
(UTC+00:00)
Language:

FAST 1 (USA 222) - Orbit

View from above orbital plane
View from above orbital plane
View from above satellite
View from above satellite

Ground track
Ground track

The orbit data is extracted from the following two-line orbital elements,

1 37227U 10062F   23088.52684180  .00002831  00000-0  37452-3 0  9993
2 37227  71.9682 235.0512 0015446 170.8438 189.3011 14.80676804191575
Epoch (UTC): 29 March 2023 12:38:39
Eccentricity: 0.0015446
inclination: 71.9682°
perigee height: 616 km
apogee height: 638 km
right ascension of ascending node: 235.0512°
argument of perigee: 170.8438°
revolutions per day: 14.80676804
mean anomaly at epoch: 189.3011°
orbit number at epoch: 19157

The dashed part of the orbit path shows where the satellite is in the earth's shadow,  

DLR